Time,TemperatureF,DewpointF,PressureIn,WindDirection,WindDirectionDegrees,WindSpeedMPH,WindSpeedGustMPH,Humidity,HourlyPrecipIn,Conditions,Clouds,dailyrainin,SoftwareType,DateUTC
2013-04-16 00:01:00,72.4,-99.9,30.03,North,-999,0.0,0.0,-999,0.00,,,-99.99,WeatherLink 5.5,2013-04-16 04:01:00,
2013-04-16 00:06:00,72.3,-99.9,30.03,North,-999,0.0,0.0,-999,0.00,,,-99.99,WeatherLink 5.5,2013-04-16 04:06:00,
2013-04-16 00:11:00,72.3,-99.9,30.03,North,-999,0.0,0.0,-999,0.00,,,-99.99,WeatherLink 5.5,2013-04-16 04:11:00,
2013-04-16 00:16:00,72.3,-99.9,30.03,North,-999,0.0,0.0,-999,0.00,,,-99.99,WeatherLink 5.5,2013-04-16 04:16:00,
2013-04-16 00:21:00,72.2,-99.9,30.03,North,-999,0.0,0.0,-999,0.00,,,-99.99,WeatherLink 5.5,2013-04-16 04:21:00,
2013-04-16 00:31:00,72.3,-99.9,30.03,North,-999,0.0,0.0,-999,0.00,,,-99.99,WeatherLink 5.5,2013-04-16 04:31:00,
2013-04-16 00:40:00,72.4,-99.9,30.03,North,-999,0.0,0.0,-999,0.00,,,-99.99,WeatherLink 5.5,2013-04-16 04:40:00,
2013-04-16 00:41:00,72.4,-99.9,30.03,North,-999,0.0,0.0,-999,0.00,,,-99.99,WeatherLink 5.5,2013-04-16 04:41:00,
2013-04-16 00:50:00,72.5,-99.9,30.03,North,-999,0.0,0.0,-999,0.00,,,-99.99,WeatherLink 5.5,2013-04-16 04:50:00,
2013-04-16 00:51:00,72.5,-99.9,30.02,South,180,1.0,4.0,-999,0.00,,,-99.99,WeatherLink 5.5,2013-04-16 04:51:00,
2013-04-16 00:55:00,72.6,-99.9,30.03,South,180,0.0,2.0,-999,0.00,,,-99.99,WeatherLink 5.5,2013-04-16 04:55:00,
2013-04-16 01:06:00,72.6,-99.9,30.02,South,180,0.0,2.0,-999,0.00,,,-99.99,WeatherLink 5.5,2013-04-16 05:06:00,
2013-04-16 01:10:00,72.5,-99.9,30.03,South,180,1.0,4.0,-999,0.00,,,-99.99,WeatherLink 5.5,2013-04-16 05:10:00,
2013-04-16 01:15:00,72.5,-99.9,30.03,South,180,1.0,4.0,-999,0.00,,,-99.99,WeatherLink 5.5,2013-04-16 05:15:00,
2013-04-16 01:21:00,72.5,-99.9,30.02,South,180,0.0,5.0,-999,0.00,,,-99.99,WeatherLink 5.5,2013-04-16 05:21:00,
2013-04-16 01:26:00,72.5,-99.9,30.03,South,180,0.0,3.0,-999,0.00,,,-99.99,WeatherLink 5.5,2013-04-16 05:26:00,
2013-04-16 01:31:00,72.4,-99.9,30.02,North,-999,0.0,0.0,-999,0.00,,,-99.99,WeatherLink 5.5,2013-04-16 05:31:00,
2013-04-16 01:35:00,72.2,-99.9,30.02,North,-999,0.0,0.0,-999,0.00,,,-99.99,WeatherLink 5.5,2013-04-16 05:35:00,
2013-04-16 01:46:00,72.1,-99.9,30.03,South,180,0.0,3.0,-999,0.00,,,-99.99,WeatherLink 5.5,2013-04-16 05:46:00,
2013-04-16 01:50:00,72.1,-99.9,30.02,North,-999,0.0,0.0,-999,0.00,,,-99.99,WeatherLink 5.5,2013-04-16 05:50:00,
2013-04-16 01:56:00,72.1,-99.9,30.02,North,-999,0.0,0.0,-999,0.00,,,-99.99,WeatherLink 5.5,2013-04-16 05:56:00,
2013-04-16 02:06:00,71.9,-99.9,30.02,North,-999,0.0,0.0,-999,0.00,,,-99.99,WeatherLink 5.5,2013-04-16 06:06:00,
2013-04-16 02:11:00,71.7,-99.9,30.02,North,-999,0.0,0.0,-999,0.00,,,-99.99,WeatherLink 5.5,2013-04-16 06:11:00,
2013-04-16 02:20:00,71.5,-99.9,30.02,North,-999,0.0,0.0,-999,0.00,,,-99.99,WeatherLink 5.5,2013-04-16 06:20:00,
2013-04-16 02:21:00,71.7,-99.9,30.02,North,-999,0.0,0.0,-999,0.00,,,-99.99,WeatherLink 5.5,2013-04-16 06:21:00,
2013-04-16 02:25:00,71.4,-99.9,30.01,North,-999,0.0,0.0,-999,0.00,,,-99.99,WeatherLink 5.5,2013-04-16 06:25:00,
2013-04-16 02:31:00,71.4,-99.9,30.01,North,-999,0.0,0.0,-999,0.00,,,-99.99,WeatherLink 5.5,2013-04-16 06:31:00,
2013-04-16 02:36:00,71.2,-99.9,30.01,North,-999,0.0,0.0,-999,0.00,,,-99.99,WeatherLink 5.5,2013-04-16 06:36:00,
2013-04-16 02:40:00,71.3,-99.9,30.01,North,-999,0.0,0.0,-999,0.00,,,-99.99,WeatherLink 5.5,2013-04-16 06:40:00,
2013-04-16 02:45:00,71.3,-99.9,30.01,North,-999,0.0,0.0,-999,0.00,,,-99.99,WeatherLink 5.5,2013-04-16 06:45:00,
2013-04-16 02:51:00,71.3,-99.9,30.01,North,-999,0.0,0.0,-999,0.00,,,-99.99,WeatherLink 5.5,2013-04-16 06:51:00,
2013-04-16 03:01:00,71.2,-99.9,30.01,North,-999,0.0,0.0,-999,0.00,,,-99.99,WeatherLink 5.5,2013-04-16 07:01:00,
2013-04-16 03:10:00,71.0,-99.9,30.01,North,-999,0.0,0.0,-999,0.00,,,-99.99,WeatherLink 5.5,2013-04-16 07:10:00,
2013-04-16 03:11:00,71.1,-99.9,30.01,North,-999,0.0,0.0,-999,0.00,,,-99.99,WeatherLink 5.5,2013-04-16 07:11:00,
2013-04-16 03:15:00,70.9,-99.9,30.01,North,-999,0.0,0.0,-999,0.00,,,-99.99,WeatherLink 5.5,2013-04-16 07:15:00,
2013-04-16 03:21:00,70.9,-99.9,30.01,North,-999,0.0,0.0,-999,0.00,,,-99.99,WeatherLink 5.5,2013-04-16 07:21:00,
2013-04-16 03:31:00,70.6,-99.9,30.01,North,-999,0.0,0.0,-999,0.00,,,-99.99,WeatherLink 5.5,2013-04-16 07:31:00,
2013-04-16 03:36:00,70.6,-99.9,30.01,North,-999,0.0,0.0,-999,0.00,,,-99.99,WeatherLink 5.5,2013-04-16 07:36:00,
2013-04-16 03:45:00,70.6,-99.9,30.00,North,-999,0.0,0.0,-999,0.00,,,-99.99,WeatherLink 5.5,2013-04-16 07:45:00,
2013-04-16 03:51:00,70.6,-99.9,30.01,North,-999,0.0,0.0,-999,0.00,,,-99.99,WeatherLink 5.5,2013-04-16 07:51:00,
2013-04-16 03:55:00,70.6,-99.9,30.00,North,-999,0.0,0.0,-999,0.00,,,-99.99,WeatherLink 5.5,2013-04-16 07:55:00,
2013-04-16 04:05:00,71.0,-99.9,30.00,North,-999,0.0,0.0,-999,0.00,,,-99.99,WeatherLink 5.5,2013-04-16 08:05:00,
2013-04-16 04:06:00,70.9,-99.9,30.00,North,-999,0.0,0.0,-999,0.00,,,-99.99,WeatherLink 5.5,2013-04-16 08:06:00,
2013-04-16 04:10:00,71.0,-99.9,30.00,North,-999,0.0,0.0,-999,0.00,,,-99.99,WeatherLink 5.5,2013-04-16 08:10:00,
2013-04-16 04:16:00,71.0,-99.9,30.00,North,-999,0.0,0.0,-999,0.00,,,-99.99,WeatherLink 5.5,2013-04-16 08:16:00,
2013-04-16 04:21:00,70.9,-99.9,30.00,North,-999,0.0,0.0,-999,0.00,,,-99.99,WeatherLink 5.5,2013-04-16 08:21:00,
2013-04-16 04:26:00,70.8,-99.9,30.00,North,-999,0.0,0.0,-999,0.00,,,-99.99,WeatherLink 5.5,2013-04-16 08:26:00,
2013-04-16 04:36:00,70.8,-99.9,30.00,North,-999,0.0,0.0,-999,0.00,,,-99.99,WeatherLink 5.5,2013-04-16 08:36:00,
2013-04-16 04:46:00,71.0,-99.9,30.00,North,-999,0.0,0.0,-999,0.00,,,-99.99,WeatherLink 5.5,2013-04-16 08:46:00,
2013-04-16 04:55:00,71.2,-99.9,30.01,North,-999,0.0,0.0,-999,0.00,,,-99.99,WeatherLink 5.5,2013-04-16 08:55:00,
2013-04-16 04:56:00,71.1,-99.9,30.01,North,-999,0.0,0.0,-999,0.00,,,-99.99,WeatherLink 5.5,2013-04-16 08:56:00,
2013-04-16 05:06:00,71.2,-99.9,30.01,North,-999,0.0,0.0,-999,0.00,,,-99.99,WeatherLink 5.5,2013-04-16 09:06:00,
2013-04-16 05:15:00,71.7,-99.9,30.01,North,-999,0.0,0.0,-999,0.00,,,-99.99,WeatherLink 5.5,2013-04-16 09:15:00,
2013-04-16 05:16:00,71.6,-99.9,30.01,North,-999,0.0,0.0,-999,0.00,,,-99.99,WeatherLink 5.5,2013-04-16 09:16:00,
2013-04-16 05:26:00,71.7,-99.9,30.01,North,-999,0.0,0.0,-999,0.00,,,-99.99,WeatherLink 5.5,2013-04-16 09:26:00,
2013-04-16 05:31:00,71.7,-99.9,30.01,North,-999,0.0,0.0,-999,0.00,,,-99.99,WeatherLink 5.5,2013-04-16 09:31:00,
2013-04-16 05:41:00,71.8,-99.9,30.01,North,-999,0.0,0.0,-999,0.00,,,-99.99,WeatherLink 5.5,2013-04-16 09:41:00,
2013-04-16 05:45:00,71.9,-99.9,30.02,North,-999,0.0,0.0,-999,0.00,,,-99.99,WeatherLink 5.5,2013-04-16 09:45:00,
2013-04-16 05:46:00,71.9,-99.9,30.01,North,-999,0.0,0.0,-999,0.00,,,-99.99,WeatherLink 5.5,2013-04-16 09:46:00,
2013-04-16 05:56:00,71.9,-99.9,30.02,North,-999,0.0,0.0,-999,0.00,,,-99.99,WeatherLink 5.5,2013-04-16 09:56:00,
2013-04-16 06:01:00,71.9,-99.9,30.02,North,-999,0.0,0.0,-999,0.00,,,-99.99,WeatherLink 5.5,2013-04-16 10:01:00,
2013-04-16 06:05:00,71.9,-99.9,30.02,North,-999,0.0,0.0,-999,0.00,,,-99.99,WeatherLink 5.5,2013-04-16 10:05:00,
2013-04-16 06:06:00,71.9,-99.9,30.02,North,-999,0.0,0.0,-999,0.00,,,-99.99,WeatherLink 5.5,2013-04-16 10:06:00,
2013-04-16 06:15:00,71.9,-99.9,30.03,North,-999,0.0,0.0,-999,0.00,,,-99.99,WeatherLink 5.5,2013-04-16 10:15:00,
2013-04-16 06:16:00,71.9,-99.9,30.02,North,-999,0.0,0.0,-999,0.00,,,-99.99,WeatherLink 5.5,2013-04-16 10:16:00,
2013-04-16 06:20:00,71.8,-99.9,30.03,North,-999,0.0,0.0,-999,0.00,,,-99.99,WeatherLink 5.5,2013-04-16 10:20:00,
2013-04-16 06:31:00,71.7,-99.9,30.03,North,-999,0.0,0.0,-999,0.00,,,-99.99,WeatherLink 5.5,2013-04-16 10:31:00,
2013-04-16 06:35:00,71.7,-99.9,30.03,North,-999,0.0,0.0,-999,0.00,,,-99.99,WeatherLink 5.5,2013-04-16 10:35:00,
2013-04-16 06:46:00,71.7,-99.9,30.03,North,-999,0.0,0.0,-999,0.00,,,-99.99,WeatherLink 5.5,2013-04-16 10:46:00,
2013-04-16 06:51:00,71.7,-99.9,30.03,North,-999,0.0,0.0,-999,0.00,,,-99.99,WeatherLink 5.5,2013-04-16 10:51:00,
2013-04-16 07:00:00,71.7,-99.9,30.04,North,-999,0.0,0.0,-999,0.00,,,-99.99,WeatherLink 5.5,2013-04-16 11:00:00,
2013-04-16 07:01:00,71.7,-99.9,30.03,North,-999,0.0,0.0,-999,0.00,,,-99.99,WeatherLink 5.5,2013-04-16 11:01:00,
2013-04-16 07:10:00,71.7,-99.9,30.04,North,-999,0.0,0.0,-999,0.00,,,-99.99,WeatherLink 5.5,2013-04-16 11:10:00,
2013-04-16 07:11:00,71.7,-99.9,30.04,North,-999,0.0,0.0,-999,0.00,,,-99.99,WeatherLink 5.5,2013-04-16 11:11:00,
2013-04-16 07:21:00,71.8,-99.9,30.04,North,-999,0.0,0.0,-999,0.00,,,-99.99,WeatherLink 5.5,2013-04-16 11:21:00,
2013-04-16 07:25:00,71.9,-99.9,30.04,North,-999,0.0,0.0,-999,0.00,,,-99.99,WeatherLink 5.5,2013-04-16 11:25:00,
2013-04-16 07:30:00,72.0,-99.9,30.05,North,-999,0.0,0.0,-999,0.00,,,-99.99,WeatherLink 5.5,2013-04-16 11:30:00,
2013-04-16 07:35:00,72.0,-99.9,30.05,North,-999,0.0,0.0,-999,0.00,,,-99.99,WeatherLink 5.5,2013-04-16 11:35:00,
2013-04-16 07:46:00,72.3,-99.9,30.05,North,-999,0.0,0.0,-999,0.00,,,-99.99,WeatherLink 5.5,2013-04-16 11:46:00,
2013-04-16 07:50:00,72.7,-99.9,30.05,North,-999,0.0,0.0,-999,0.00,,,-99.99,WeatherLink 5.5,2013-04-16 11:50:00,
2013-04-16 07:51:00,72.5,-99.9,30.05,North,-999,0.0,0.0,-999,0.00,,,-99.99,WeatherLink 5.5,2013-04-16 11:51:00,
2013-04-16 08:00:00,73.1,-99.9,30.06,South,180,0.0,2.0,-999,0.00,,,-99.99,WeatherLink 5.5,2013-04-16 12:00:00,
2013-04-16 08:01:00,72.9,-99.9,30.06,North,-999,0.0,0.0,-999,0.00,,,-99.99,WeatherLink 5.5,2013-04-16 12:01:00,
2013-04-16 08:06:00,73.1,-99.9,30.06,South,180,0.0,2.0,-999,0.00,,,-99.99,WeatherLink 5.5,2013-04-16 12:06:00,
2013-04-16 08:16:00,73.8,-99.9,30.06,North,-999,0.0,1.0,-999,0.00,,,-99.99,WeatherLink 5.5,2013-04-16 12:16:00,
2013-04-16 08:21:00,74.3,-99.9,30.06,South,180,0.0,1.0,-999,0.00,,,-99.99,WeatherLink 5.5,2013-04-16 12:21:00,
2013-04-16 08:30:00,76.0,-99.9,30.06,North,-999,0.0,0.0,-999,0.00,,,-99.99,WeatherLink 5.5,2013-04-16 12:30:00,
2013-04-16 08:31:00,75.4,-99.9,30.06,North,-999,0.0,0.0,-999,0.00,,,-99.99,WeatherLink 5.5,2013-04-16 12:31:00,
2013-04-16 08:41:00,76.3,-99.9,30.06,North,-999,0.0,0.0,-999,0.00,,,-99.99,WeatherLink 5.5,2013-04-16 12:41:00,
2013-04-16 08:46:00,76.8,-99.9,30.06,North,-999,0.0,0.0,-999,0.00,,,-99.99,WeatherLink 5.5,2013-04-16 12:46:00,
2013-04-16 08:55:00,77.5,-99.9,30.07,South,180,0.0,4.0,-999,0.00,,,-99.99,WeatherLink 5.5,2013-04-16 12:55:00,
2013-04-16 08:56:00,77.6,-99.9,30.07,South,180,0.0,1.0,-999,0.00,,,-99.99,WeatherLink 5.5,2013-04-16 12:56:00,
2013-04-16 09:05:00,77.8,-99.9,30.07,North,-999,0.0,0.0,-999,0.00,,,-99.99,WeatherLink 5.5,2013-04-16 13:05:00,
2013-04-16 09:06:00,77.7,-99.9,30.07,South,180,0.0,1.0,-999,0.00,,,-99.99,WeatherLink 5.5,2013-04-16 13:06:00,
2013-04-16 09:16:00,77.9,-99.9,30.07,North,-999,0.0,0.0,-999,0.00,,,-99.99,WeatherLink 5.5,2013-04-16 13:16:00,
2013-04-16 09:26:00,78.3,-99.9,30.07,South,180,0.0,1.0,-999,0.00,,,-99.99,WeatherLink 5.5,2013-04-16 13:26:00,
2013-04-16 09:36:00,78.8,-99.9,30.07,ENE,67,2.0,8.0,-999,0.00,,,-99.99,WeatherLink 5.5,2013-04-16 13:36:00,
2013-04-16 09:46:00,78.9,-99.9,30.07,ENE,67,3.0,10.0,-999,0.00,,,-99.99,WeatherLink 5.5,2013-04-16 13:46:00,
2013-04-16 09:56:00,79.8,-99.9,30.07,ENE,67,1.0,8.0,-999,0.00,,,-99.99,WeatherLink 5.5,2013-04-16 13:56:00,
2013-04-16 10:01:00,80.3,-99.9,30.07,East,90,3.0,10.0,-999,0.00,,,-99.99,WeatherLink 5.5,2013-04-16 14:01:00,
2013-04-16 10:05:00,80.3,-99.9,30.08,ENE,67,1.0,7.0,-999,0.00,,,-99.99,WeatherLink 5.5,2013-04-16 14:05:00,
2013-04-16 10:10:00,80.3,-99.9,30.08,East,90,1.0,6.0,-999,0.00,,,-99.99,WeatherLink 5.5,2013-04-16 14:10:00,
2013-04-16 10:11:00,80.3,-99.9,30.08,ENE,67,1.0,7.0,-999,0.00,,,-99.99,WeatherLink 5.5,2013-04-16 14:11:00,
2013-04-16 10:20:00,81.3,-99.9,30.08,ENE,67,2.0,10.0,-999,0.00,,,-99.99,WeatherLink 5.5,2013-04-16 14:20:00,
2013-04-16 10:21:00,80.7,-99.9,30.08,ENE,67,1.0,8.0,-999,0.00,,,-99.99,WeatherLink 5.5,2013-04-16 14:21:00,
2013-04-16 10:25:00,81.6,-99.9,30.08,East,90,3.0,9.0,-999,0.00,,,-99.99,WeatherLink 5.5,2013-04-16 14:25:00,
2013-04-16 10:30:00,81.9,-99.9,30.08,ENE,67,3.0,8.0,-999,0.00,,,-99.99,WeatherLink 5.5,2013-04-16 14:30:00,
2013-04-16 10:40:00,81.0,-99.9,30.08,ENE,67,1.0,8.0,-999,0.00,,,-99.99,WeatherLink 5.5,2013-04-16 14:40:00,
2013-04-16 10:41:00,81.5,-99.9,30.09,ENE,67,3.0,10.0,-999,0.00,,,-99.99,WeatherLink 5.5,2013-04-16 14:41:00,
2013-04-16 10:45:00,80.9,-99.9,30.09,ENE,67,2.0,8.0,-999,0.00,,,-99.99,WeatherLink 5.5,2013-04-16 14:45:00,
2013-04-16 10:46:00,81.0,-99.9,30.08,ENE,67,1.0,8.0,-999,0.00,,,-99.99,WeatherLink 5.5,2013-04-16 14:46:00,
2013-04-16 10:55:00,80.4,74.0,30.08,ENE,67,1.0,8.0,81,0.00,,,-99.99,WeatherLink 5.5,2013-04-16 14:55:00,
2013-04-16 10:56:00,80.7,-99.9,30.09,ENE,67,2.0,11.0,-999,0.00,,,-99.99,WeatherLink 5.5,2013-04-16 14:56:00,
2013-04-16 11:06:00,80.8,-99.9,30.09,ENE,67,2.0,8.0,-999,0.00,,,-99.99,WeatherLink 5.5,2013-04-16 15:06:00,
2013-04-16 11:16:00,81.3,-99.9,30.09,ENE,67,4.0,11.0,-999,0.00,,,-99.99,WeatherLink 5.5,2013-04-16 15:16:00,
2013-04-16 11:20:00,81.7,-99.9,30.09,ENE,67,2.0,8.0,-999,0.00,,,-99.99,WeatherLink 5.5,2013-04-16 15:20:00,
2013-04-16 11:31:00,81.5,75.1,30.09,East,90,3.0,9.0,81,0.00,,,-99.99,WeatherLink 5.5,2013-04-16 15:31:00,
2013-04-16 11:35:00,81.5,-99.9,30.09,East,90,4.0,10.0,-999,0.00,,,-99.99,WeatherLink 5.5,2013-04-16 15:35:00,
2013-04-16 11:36:00,81.1,-99.9,30.09,ENE,67,1.0,9.0,-999,0.00,,,-99.99,WeatherLink 5.5,2013-04-16 15:36:00,
2013-04-16 11:45:00,82.1,-99.9,30.09,ENE,67,3.0,10.0,-999,0.00,,,-99.99,WeatherLink 5.5,2013-04-16 15:45:00,
2013-04-16 11:46:00,82.1,-99.9,30.09,ENE,67,3.0,7.0,-999,0.00,,,-99.99,WeatherLink 5.5,2013-04-16 15:46:00,
2013-04-16 11:56:00,82.5,-99.9,30.09,ENE,67,2.0,9.0,-999,0.00,,,-99.99,WeatherLink 5.5,2013-04-16 15:56:00,
2013-04-16 12:00:00,83.1,-99.9,30.10,East,90,5.0,10.0,-999,0.00,,,-99.99,WeatherLink 5.5,2013-04-16 16:00:00,
2013-04-16 12:11:00,83.6,-99.9,30.09,East,90,6.0,12.0,-999,0.00,,,-99.99,WeatherLink 5.5,2013-04-16 16:11:00,
2013-04-16 12:15:00,83.8,-99.9,30.09,East,90,5.0,12.0,-999,0.00,,,-99.99,WeatherLink 5.5,2013-04-16 16:15:00,
2013-04-16 12:26:00,83.9,77.4,30.08,ENE,67,4.0,10.0,81,0.00,,,-99.99,WeatherLink 5.5,2013-04-16 16:26:00,
2013-04-16 12:30:00,84.3,77.8,30.08,ESE,112,4.0,10.0,81,0.00,,,-99.99,WeatherLink 5.5,2013-04-16 16:30:00,
2013-04-16 12:35:00,84.6,77.7,30.08,East,90,4.0,10.0,80,0.00,,,-99.99,WeatherLink 5.5,2013-04-16 16:35:00,
2013-04-16 12:46:00,84.6,75.4,30.10,East,90,4.0,9.0,74,0.00,,,-99.99,WeatherLink 5.5,2013-04-16 16:46:00,
2013-04-16 12:51:00,83.9,73.1,30.06,ENE,67,5.0,10.0,70,0.00,,,-99.99,WeatherLink 5.5,2013-04-16 16:51:00,
2013-04-16 13:00:00,84.6,77.4,30.08,ENE,67,6.0,12.0,79,0.00,,,-99.99,WeatherLink 5.5,2013-04-16 17:00:00,
2013-04-16 13:01:00,84.3,72.6,30.10,ESE,112,5.0,10.0,68,0.00,,,-99.99,WeatherLink 5.5,2013-04-16 17:01:00,
2013-04-16 13:11:00,83.8,74.2,30.08,ENE,67,6.0,12.0,73,0.00,,,-99.99,WeatherLink 5.5,2013-04-16 17:11:00,
2013-04-16 13:21:00,83.9,70.9,30.08,East,90,6.0,14.0,65,0.00,,,-99.99,WeatherLink 5.5,2013-04-16 17:21:00,
2013-04-16 13:26:00,84.3,73.4,30.08,East,90,6.0,11.0,70,0.00,,,-99.99,WeatherLink 5.5,2013-04-16 17:26:00,
2013-04-16 13:30:00,84.3,83.7,30.08,East,90,4.0,12.0,98,0.00,,,-99.99,WeatherLink 5.5,2013-04-16 17:30:00,
2013-04-16 13:31:00,84.6,79.9,30.08,ENE,67,3.0,10.0,86,0.00,,,-99.99,WeatherLink 5.5,2013-04-16 17:31:00,
2013-04-16 13:41:00,83.5,80.6,30.08,East,90,5.0,10.0,91,0.00,,,-99.99,WeatherLink 5.5,2013-04-16 17:41:00,
2013-04-16 13:50:00,83.4,69.9,30.07,ENE,67,3.0,12.0,64,0.00,,,-99.99,WeatherLink 5.5,2013-04-16 17:50:00,
2013-04-16 13:51:00,83.3,68.9,30.11,East,90,4.0,10.0,62,0.00,,,-99.99,WeatherLink 5.5,2013-04-16 17:51:00,
2013-04-16 14:01:00,83.2,69.3,30.07,ENE,67,5.0,12.0,63,0.00,,,-99.99,WeatherLink 5.5,2013-04-16 18:01:00,
2013-04-16 14:10:00,84.6,84.6,30.07,East,90,4.0,9.0,100,0.00,,,-99.99,WeatherLink 5.5,2013-04-16 18:10:00,
2013-04-16 14:11:00,84.1,72.4,30.07,ENE,67,3.0,11.0,68,0.00,,,-99.99,WeatherLink 5.5,2013-04-16 18:11:00,
2013-04-16 14:20:00,84.5,84.5,30.06,East,90,5.0,11.0,100,0.00,,,-99.99,WeatherLink 5.5,2013-04-16 18:20:00,
2013-04-16 14:21:00,84.4,84.4,30.07,East,90,5.0,10.0,100,0.00,,,-99.99,WeatherLink 5.5,2013-04-16 18:21:00,
2013-04-16 14:31:00,84.7,84.7,30.06,East,90,5.0,11.0,100,0.00,,,-99.99,WeatherLink 5.5,2013-04-16 18:31:00,
2013-04-16 14:36:00,84.7,84.7,30.06,ENE,67,4.0,10.0,100,0.00,,,-99.99,WeatherLink 5.5,2013-04-16 18:36:00,
2013-04-16 14:46:00,83.8,83.8,30.06,ENE,67,4.0,10.0,100,0.00,,,-99.99,WeatherLink 5.5,2013-04-16 18:46:00,
2013-04-16 14:51:00,83.9,83.9,30.06,ENE,67,5.0,13.0,100,0.00,,,-99.99,WeatherLink 5.5,2013-04-16 18:51:00,
2013-04-16 14:55:00,83.5,83.5,30.06,NE,45,4.0,15.0,100,0.00,,,-99.99,WeatherLink 5.5,2013-04-16 18:55:00,
2013-04-16 15:06:00,83.9,83.9,30.06,ENE,67,4.0,11.0,100,0.00,,,-99.99,WeatherLink 5.5,2013-04-16 19:06:00,
2013-04-16 15:10:00,84.1,84.1,30.05,ENE,67,6.0,13.0,100,0.00,,,-99.99,WeatherLink 5.5,2013-04-16 19:10:00,
2013-04-16 15:16:00,84.1,84.1,30.05,ENE,67,6.0,13.0,100,0.00,,,-99.99,WeatherLink 5.5,2013-04-16 19:16:00,
2013-04-16 15:21:00,83.0,83.0,30.05,NE,45,6.0,15.0,100,0.00,,,-99.99,WeatherLink 5.5,2013-04-16 19:21:00,
2013-04-16 15:31:00,82.0,81.7,30.05,NE,45,7.0,14.0,99,0.00,,,-99.99,WeatherLink 5.5,2013-04-16 19:31:00,
2013-04-16 15:35:00,81.5,64.8,30.05,NE,45,3.0,10.0,57,0.00,,,-99.99,WeatherLink 5.5,2013-04-16 19:35:00,
2013-04-16 15:40:00,82.4,66.6,30.04,ENE,67,3.0,11.0,59,0.00,,,-99.99,WeatherLink 5.5,2013-04-16 19:40:00,
2013-04-16 15:51:00,82.5,71.7,30.04,NE,45,3.0,10.0,70,0.00,,,-99.99,WeatherLink 5.5,2013-04-16 19:51:00,
2013-04-16 15:56:00,82.3,73.2,30.04,ENE,67,4.0,11.0,74,0.00,,,-99.99,WeatherLink 5.5,2013-04-16 19:56:00,
2013-04-16 16:01:00,82.3,67.0,30.04,NE,45,4.0,13.0,60,0.00,,,-99.99,WeatherLink 5.5,2013-04-16 20:01:00,
2013-04-16 16:06:00,82.9,77.6,30.04,NE,45,4.0,10.0,84,0.00,,,-99.99,WeatherLink 5.5,2013-04-16 20:06:00,
2013-04-16 16:10:00,82.9,80.3,30.05,NNE,22,4.0,11.0,92,0.00,,,-99.99,WeatherLink 5.5,2013-04-16 20:10:00,
2013-04-16 16:15:00,83.4,83.4,30.05,NNE,22,8.0,13.0,100,0.00,,,-99.99,WeatherLink 5.5,2013-04-16 20:15:00,
2013-04-16 16:21:00,83.4,83.4,30.05,NNE,22,8.0,13.0,100,0.00,,,-99.99,WeatherLink 5.5,2013-04-16 20:21:00,
2013-04-16 16:31:00,83.3,83.3,30.04,NE,45,5.0,14.0,100,0.00,,,-99.99,WeatherLink 5.5,2013-04-16 20:31:00,
2013-04-16 16:41:00,83.2,83.2,30.05,NNE,22,4.0,14.0,100,0.00,,,-99.99,WeatherLink 5.5,2013-04-16 20:41:00,
2013-04-16 16:45:00,83.5,83.5,30.04,NE,45,4.0,14.0,100,0.00,,,-99.99,WeatherLink 5.5,2013-04-16 20:45:00,
2013-04-16 16:51:00,83.5,83.5,30.04,NE,45,4.0,14.0,100,0.00,,,-99.99,WeatherLink 5.5,2013-04-16 20:51:00,
2013-04-16 16:56:00,83.6,83.6,30.04,NE,45,6.0,14.0,100,0.00,,,-99.99,WeatherLink 5.5,2013-04-16 20:56:00,
2013-04-16 17:06:00,83.9,83.9,30.04,NE,45,2.0,14.0,100,0.00,,,-99.99,WeatherLink 5.5,2013-04-16 21:06:00,
2013-04-16 17:15:00,82.5,82.5,30.04,NE,45,4.0,12.0,100,0.00,,,-99.99,WeatherLink 5.5,2013-04-16 21:15:00,
2013-04-16 17:16:00,83.2,83.2,30.04,NE,45,6.0,13.0,100,0.00,,,-99.99,WeatherLink 5.5,2013-04-16 21:16:00,
2013-04-16 17:21:00,82.5,82.5,30.04,NE,45,4.0,12.0,100,0.00,,,-99.99,WeatherLink 5.5,2013-04-16 21:21:00,
2013-04-16 17:25:00,82.7,82.7,30.04,NE,45,7.0,14.0,100,0.00,,,-99.99,WeatherLink 5.5,2013-04-16 21:25:00,
2013-04-16 17:36:00,82.4,82.4,30.05,NNE,22,4.0,14.0,100,0.00,,,-99.99,WeatherLink 5.5,2013-04-16 21:36:00,
2013-04-16 17:41:00,82.2,82.2,30.05,NE,45,6.0,14.0,100,0.00,,,-99.99,WeatherLink 5.5,2013-04-16 21:41:00,
2013-04-16 17:51:00,81.8,81.8,30.05,NNE,22,5.0,11.0,100,0.00,,,-99.99,WeatherLink 5.5,2013-04-16 21:51:00,
2013-04-16 17:56:00,81.7,81.7,30.05,NE,45,4.0,15.0,100,0.00,,,-99.99,WeatherLink 5.5,2013-04-16 21:56:00,
2013-04-16 18:05:00,81.0,81.0,30.05,NE,45,3.0,12.0,100,0.00,,,-99.99,WeatherLink 5.5,2013-04-16 22:05:00,
2013-04-16 18:06:00,81.2,81.2,30.05,NE,45,4.0,12.0,100,0.00,,,-99.99,WeatherLink 5.5,2013-04-16 22:06:00,
2013-04-16 18:11:00,81.0,81.0,30.05,NE,45,3.0,12.0,100,0.00,,,-99.99,WeatherLink 5.5,2013-04-16 22:11:00,
2013-04-16 18:21:00,81.1,81.1,30.05,ENE,67,5.0,12.0,100,0.00,,,-99.99,WeatherLink 5.5,2013-04-16 22:21:00,
2013-04-16 18:26:00,81.1,81.1,30.05,NE,45,4.0,13.0,100,0.00,,,-99.99,WeatherLink 5.5,2013-04-16 22:26:00,
2013-04-16 18:30:00,80.9,80.9,30.06,NE,45,4.0,11.0,100,0.00,,,-99.99,WeatherLink 5.5,2013-04-16 22:30:00,
2013-04-16 18:41:00,80.6,80.6,30.06,NE,45,8.0,17.0,100,0.00,,,-99.99,WeatherLink 5.5,2013-04-16 22:41:00,
2013-04-16 18:51:00,80.1,75.2,30.06,NE,45,4.0,11.0,85,0.00,,,-99.99,WeatherLink 5.5,2013-04-16 22:51:00,
2013-04-16 18:55:00,80.0,70.6,30.07,NE,45,4.0,13.0,73,0.00,,,-99.99,WeatherLink 5.5,2013-04-16 22:55:00,
2013-04-16 18:56:00,80.0,70.6,30.07,NE,45,4.0,13.0,73,0.00,,,-99.99,WeatherLink 5.5,2013-04-16 22:56:00,
2013-04-16 19:00:00,79.9,69.7,30.06,NE,45,4.0,15.0,71,0.00,,,-99.99,WeatherLink 5.5,2013-04-16 23:00:00,
2013-04-16 19:11:00,79.9,70.9,30.07,NE,45,4.0,14.0,74,0.00,,,-99.99,WeatherLink 5.5,2013-04-16 23:11:00,
2013-04-16 19:16:00,79.9,69.2,30.07,NE,45,4.0,12.0,70,0.00,,,-99.99,WeatherLink 5.5,2013-04-16 23:16:00,
2013-04-16 19:26:00,79.8,68.3,30.07,ENE,67,2.0,8.0,68,0.00,,,-99.99,WeatherLink 5.5,2013-04-16 23:26:00,
2013-04-16 19:30:00,79.5,70.5,30.07,NNE,22,5.0,13.0,74,0.00,,,-99.99,WeatherLink 5.5,2013-04-16 23:30:00,
2013-04-16 19:31:00,79.7,67.3,30.07,NNE,22,3.0,13.0,66,0.00,,,-99.99,WeatherLink 5.5,2013-04-16 23:31:00,
2013-04-16 19:35:00,79.4,67.9,30.08,NNE,22,4.0,12.0,68,0.00,,,-99.99,WeatherLink 5.5,2013-04-16 23:35:00,
2013-04-16 19:41:00,79.4,67.9,30.08,NNE,22,4.0,12.0,68,0.00,,,-99.99,WeatherLink 5.5,2013-04-16 23:41:00,
2013-04-16 19:51:00,79.2,66.9,30.07,NNE,22,2.0,10.0,66,0.00,,,-99.99,WeatherLink 5.5,2013-04-16 23:51:00,
2013-04-16 19:56:00,79.0,69.6,30.07,NNE,22,3.0,12.0,73,0.00,,,-99.99,WeatherLink 5.5,2013-04-16 23:56:00,
2013-04-16 20:01:00,78.7,71.6,30.08,NE,45,1.0,10.0,79,0.00,,,-99.99,WeatherLink 5.5,2013-04-17 00:01:00,
2013-04-16 20:05:00,78.5,69.5,30.07,NE,45,5.0,13.0,74,0.00,,,-99.99,WeatherLink 5.5,2013-04-17 00:05:00,
2013-04-16 20:16:00,78.5,69.1,30.07,NE,45,3.0,14.0,73,0.00,,,-99.99,WeatherLink 5.5,2013-04-17 00:16:00,
2013-04-16 20:20:00,78.3,69.7,30.08,NNE,22,3.0,9.0,75,0.00,,,-99.99,WeatherLink 5.5,2013-04-17 00:20:00,
2013-04-16 20:21:00,78.4,71.0,30.08,NE,45,4.0,11.0,78,0.00,,,-99.99,WeatherLink 5.5,2013-04-17 00:21:00,
2013-04-16 20:31:00,78.3,67.7,30.08,NNE,22,2.0,9.0,70,0.00,,,-99.99,WeatherLink 5.5,2013-04-17 00:31:00,
2013-04-16 20:40:00,78.0,66.2,30.08,NE,45,2.0,10.0,67,0.00,,,-99.99,WeatherLink 5.5,2013-04-17 00:40:00,
2013-04-16 20:41:00,78.1,66.7,30.08,NE,45,2.0,14.0,68,0.00,,,-99.99,WeatherLink 5.5,2013-04-17 00:41:00,
2013-04-16 20:45:00,77.9,66.5,30.08,NE,45,4.0,12.0,68,0.00,,,-99.99,WeatherLink 5.5,2013-04-17 00:45:00,
2013-04-16 20:56:00,77.9,68.5,30.08,NNE,22,2.0,7.0,73,0.00,,,-99.99,WeatherLink 5.5,2013-04-17 00:56:00,
2013-04-16 21:00:00,77.7,70.7,30.09,NE,45,2.0,9.0,79,0.00,,,-99.99,WeatherLink 5.5,2013-04-17 01:00:00,
2013-04-16 21:01:00,77.8,69.2,30.09,NNE,22,3.0,9.0,75,0.00,,,-99.99,WeatherLink 5.5,2013-04-17 01:01:00,
2013-04-16 21:11:00,77.7,70.7,30.08,NE,45,2.0,9.0,79,0.00,,,-99.99,WeatherLink 5.5,2013-04-17 01:11:00,
2013-04-16 21:16:00,77.6,70.6,30.09,NE,45,1.0,5.0,79,0.00,,,-99.99,WeatherLink 5.5,2013-04-17 01:16:00,
2013-04-16 21:26:00,77.5,68.2,30.09,NNE,22,2.0,8.0,73,0.00,,,-99.99,WeatherLink 5.5,2013-04-17 01:26:00,
2013-04-16 21:30:00,77.5,65.7,30.09,NE,45,2.0,9.0,67,0.00,,,-99.99,WeatherLink 5.5,2013-04-17 01:30:00,
2013-04-16 21:36:00,77.5,65.7,30.09,NE,45,2.0,9.0,67,0.00,,,-99.99,WeatherLink 5.5,2013-04-17 01:36:00,
2013-04-16 21:41:00,77.3,65.1,30.09,NNE,22,2.0,9.0,66,0.00,,,-99.99,WeatherLink 5.5,2013-04-17 01:41:00,
2013-04-16 21:46:00,77.3,65.1,30.09,NNE,22,2.0,9.0,66,0.00,,,-99.99,WeatherLink 5.5,2013-04-17 01:46:00,
2013-04-16 21:56:00,77.2,65.0,30.08,NNE,22,3.0,11.0,66,0.00,,,-99.99,WeatherLink 5.5,2013-04-17 01:56:00,
2013-04-16 22:01:00,77.2,65.8,30.08,NNE,22,2.0,10.0,68,0.00,,,-99.99,WeatherLink 5.5,2013-04-17 02:01:00,
2013-04-16 22:05:00,77.2,66.2,30.09,NE,45,2.0,8.0,69,0.00,,,-99.99,WeatherLink 5.5,2013-04-17 02:05:00,
2013-04-16 22:06:00,77.2,66.2,30.09,NE,45,2.0,8.0,69,0.00,,,-99.99,WeatherLink 5.5,2013-04-17 02:06:00,
2013-04-16 22:10:00,77.1,64.9,30.09,NE,45,1.0,9.0,66,0.00,,,-99.99,WeatherLink 5.5,2013-04-17 02:10:00,
2013-04-16 22:16:00,77.1,64.9,30.09,NE,45,1.0,9.0,66,0.00,,,-99.99,WeatherLink 5.5,2013-04-17 02:16:00,
2013-04-16 22:21:00,77.1,63.5,30.09,NE,45,2.0,8.0,63,0.00,,,-99.99,WeatherLink 5.5,2013-04-17 02:21:00,
2013-04-16 22:31:00,77.0,62.0,30.10,NNE,22,1.0,5.0,60,0.00,,,-99.99,WeatherLink 5.5,2013-04-17 02:31:00,
2013-04-16 22:41:00,76.9,61.0,30.07,NE,45,2.0,9.0,58,0.00,,,-99.99,WeatherLink 5.5,2013-04-17 02:41:00,
2013-04-16 22:51:00,76.9,61.5,30.10,NNE,22,1.0,8.0,59,0.00,,,-99.99,WeatherLink 5.5,2013-04-17 02:51:00,
2013-04-16 23:01:00,76.7,61.8,30.08,NNE,22,0.0,4.0,60,0.00,,,-99.99,WeatherLink 5.5,2013-04-17 03:01:00,
2013-04-16 23:05:00,76.6,62.1,30.09,NE,45,2.0,7.0,61,0.00,,,-99.99,WeatherLink 5.5,2013-04-17 03:05:00,
2013-04-16 23:11:00,76.6,62.1,30.09,NE,45,2.0,7.0,61,0.00,,,-99.99,WeatherLink 5.5,2013-04-17 03:11:00,
2013-04-16 23:15:00,76.5,62.5,30.08,NE,45,1.0,8.0,62,0.00,,,-99.99,WeatherLink 5.5,2013-04-17 03:15:00,
2013-04-16 23:16:00,76.6,62.6,30.09,NE,45,1.0,6.0,62,0.00,,,-99.99,WeatherLink 5.5,2013-04-17 03:16:00,
2013-04-16 23:26:00,76.5,62.5,30.08,NE,45,2.0,8.0,62,0.00,,,-99.99,WeatherLink 5.5,2013-04-17 03:26:00,
2013-04-16 23:36:00,76.5,62.0,30.09,ENE,67,1.0,10.0,61,0.00,,,-99.99,WeatherLink 5.5,2013-04-17 03:36:00,
2013-04-16 23:40:00,76.5,62.0,30.08,ENE,67,2.0,8.0,61,0.00,,,-99.99,WeatherLink 5.5,2013-04-17 03:40:00,
2013-04-16 23:41:00,76.5,62.0,30.08,ENE,67,2.0,8.0,61,0.00,,,-99.99,WeatherLink 5.5,2013-04-17 03:41:00,
2013-04-16 23:45:00,76.5,62.0,30.10,ENE,67,1.0,9.0,61,0.00,,,-99.99,WeatherLink 5.5,2013-04-17 03:45:00,
2013-04-16 23:56:00,76.4,62.0,30.07,ENE,67,1.0,5.0,61,0.00,,,-99.99,WeatherLink 5.5,2013-04-17 03:56:00,